FW3644 Weather Reports


Display with metric or nautical units.
time (UTC)temp
F
wind
direction
speed
MPH
gust
MPH
rain 1hr
in
rain 24hr
in
rain mn
in
humidity
%
barometer
mb
20190822164127 74 158 7.0 0.0 0.00 0.00 0.00 75
20190822163224 74 135 7.0 0.0 0.00 0.00 0.00 77
20190822162227 74 160 7.0 0.0 0.00 0.00 0.00 79
20190822161326 73 141 8.0 0.0 0.00 0.00 0.00 81
20190822160324 73 141 9.0 0.0 0.00 0.00 0.00 82
20190822155328 72 138 6.0 0.0 0.00 0.00 0.00 84
20190822154425 71 128 8.0 0.0 0.00 0.00 0.00 85
20190822153523 71 150 7.0 0.0 0.00 0.00 0.00 86
20190822152524 71 145 7.0 0.0 0.00 0.00 0.00 87
20190822151531 70 149 7.0 0.0 0.00 0.00 0.00 88
20190822150528 69 134 7.0 0.0 0.00 0.00 0.00 89
20190822145524 69 118 6.0 0.0 0.00 0.00 0.00 89
20190822144531 69 146 7.0 0.0 0.00 0.00 0.00 89
20190822143526 70 133 6.0 0.0 0.00 0.00 0.00 89
20190822142523 70 125 9.0 0.0 0.00 0.00 0.00 89
20190822141530 70 116 7.0 0.0 0.00 0.00 0.00 90
20190822140527 69 99 5.0 0.0 0.00 0.00 0.00 90
20190822135526 69 60 2.0 0.0 0.00 0.00 0.00 91
20190822134621 69 60 4.0 0.0 0.00 0.00 0.00 92
20190822133626 68 53 6.0 0.0 0.00 0.00 0.00 93
20190822132629 68 63 4.0 0.0 0.00 0.00 0.00 94
20190822131632 68 59 5.0 0.0 0.00 0.00 0.00 94
20190822130724 68 37 7.0 0.0 0.00 0.00 0.00 94
20190822125822 68 34 7.0 0.0 0.00 0.00 0.00 94
20190822124921 68 40 8.0 0.0 0.00 0.00 0.00 94
20190822124019 68 27 7.0 0.0 0.00 0.00 0.00 95
20190822123030 68 37 7.0 0.0 0.00 0.00 0.00 95
20190822122025 68 22 8.0 0.0 0.00 0.00 0.00 96
20190822121025 68 19 8.0 0.0 0.00 0.00 0.00 96
20190822120023 68 23 8.0 0.0 0.00 0.00 0.00 96
20190822115025 68 9 6.0 0.0 0.00 0.00 0.00 95
20190822114028 67 29 5.0 0.0 0.00 0.00 0.00 95
20190822113123 67 25 8.0 0.0 0.00 0.00 0.00 95
20190822112127 67 21 5.0 0.0 0.00 0.00 0.00 95
20190822111126 67 357 6.0 0.0 0.00 0.00 0.00 95
20190822110221 67 4 6.0 0.0 0.00 0.00 0.00 95
20190822105322 67 65 2.0 0.0 0.00 0.00 0.00 95
20190822104326 67 22 5.0 0.0 0.00 0.00 0.00 95
20190822103423 66 22 2.0 0.0 0.00 0.00 0.00 95
20190822102424 66 134 0.0 0.0 0.00 0.00 0.00 94
20190822101428 67 135 2.0 0.0 0.00 0.00 0.00 94
20190822100424 67 90 0.0 0.0 0.00 0.00 0.00 94
20190822095422 67 360 0.0 0.0 0.00 0.00 0.00 94
20190822094426 68 360 1.0 0.0 0.00 0.00 0.00 94
20190822093521 68 337 2.0 0.0 0.00 0.00 0.00 93
20190822092528 68 22 0.0 0.0 0.00 0.00 0.00 93
20190822091530 68 22 0.0 0.0 0.00 0.00 0.00 93
20190822090526 68 337 0.0 0.0 0.00 0.00 0.00 92
20190822085524 68 342 2.0 0.0 0.00 0.00 0.00 92
20190822084529 69 347 2.0 0.0 0.00 0.00 0.00 92
20190822083622 69 356 2.0 0.0 0.00 0.00 0.00 92
20190822082626 69 339 3.0 0.0 0.00 0.00 0.00 92
20190822081722 69 345 4.0 0.0 0.00 0.00 0.00 92
20190822080820 69 334 6.0 0.0 0.00 0.00 0.00 92
20190822075829 69 337 5.0 0.0 0.00 0.00 0.00 92
20190822074924 69 339 4.0 0.0 0.00 0.00 0.00 91
20190822074021 69 308 4.0 0.0 0.00 0.00 0.00 92
20190822073027 69 292 3.0 0.0 0.00 0.00 0.00 91
20190822072025 69 292 3.0 0.0 0.00 0.00 0.00 91
20190822071027 69 292 2.0 0.0 0.00 0.00 0.00 91
20190822070029 69 292 2.0 0.0 0.00 0.00 0.00 90
20190822065121 69 337 2.0 0.0 0.00 0.00 0.00 90
20190822064220 70 315 3.0 0.0 0.00 0.00 0.00 88
20190822063223 70 305 4.0 0.0 0.00 0.00 0.00 88
20190822062220 70 337 4.0 0.0 0.00 0.00 0.00 88
20190822061225 70 337 4.0 0.0 0.00 0.00 0.00 88
20190822060320 70 337 4.0 0.0 0.00 0.00 0.00 88
20190822055325 71 67 3.0 0.0 0.00 0.00 0.00 88
20190822054423 71 57 3.0 0.0 0.00 0.00 0.00 87
20190822053423 71 60 2.0 0.0 0.00 0.00 0.00 86
20190822052521 71 62 3.0 0.0 0.00 0.00 0.00 85
20190822051525 72 62 5.0 0.0 0.00 0.00 0.00 84
20190822050624 72 48 4.0 0.0 0.00 0.00 0.00 84
20190822045628 72 65 3.0 0.0 0.00 0.00 0.00 83
20190822044629 72 69 2.0 0.0 0.00 0.00 0.00 82
20190822043723 73 30 4.0 0.0 0.00 0.00 0.00 82
20190822042730 73 14 2.0 0.0 0.00 0.00 0.00 81
20190822041823 73 56 2.0 0.0 0.00 0.00 0.00 80
20190822040830 74 51 4.0 0.0 0.00 0.00 0.00 79
20190822035925 74 20 4.0 0.0 0.00 0.00 0.00 78
20190822035024 74 47 5.0 0.0 0.00 0.00 0.00 77
20190822034029 75 66 2.0 0.0 0.00 0.00 0.00 76
20190822033123 75 27 4.0 0.0 0.00 0.00 0.00 75
20190822032130 75 67 3.0 0.0 0.00 0.00 0.00 75
20190822031223 75 66 2.0 0.0 0.00 0.00 0.00 74
20190822030226 76 45 2.0 0.0 0.00 0.00 0.00 72
20190822025229 76 225 1.0 0.0 0.00 0.00 0.00 71
20190822024229 76 38 2.0 0.0 0.00 0.00 0.00 69
20190822023226 78 36 4.0 0.0 0.00 0.00 0.00 58
20190822022227 79 66 3.0 0.0 0.00 0.00 0.00 50
20190822021229 82 84 7.0 0.0 0.00 0.00 0.00 45
20190822020229 81 79 4.0 0.0 0.00 0.00 0.00 48
20190822015224 81 44 6.0 0.0 0.00 0.00 0.00 47
20190822014323 80 70 3.0 0.0 0.00 0.00 0.00 47
20190822013324 81 112 4.0 0.0 0.00 0.00 0.00 48
20190822012328 81 136 5.0 0.0 0.00 0.00 0.00 48
20190822011328 81 136 6.0 0.0 0.00 0.00 0.00 49
20190822010423 81 149 3.0 0.0 0.00 0.00 0.00 49
20190822005427 82 154 5.0 0.0 0.00 0.00 0.00 48
20190822004524 82 167 6.0 0.0 0.00 0.00 0.00 46
20190822003546 83 158 6.0 0.0 0.00 0.00 0.00 45
20190822002603 84 161 6.0 0.0 0.00 0.00 0.00 44
20190822001554 84 167 7.0 0.0 0.00 0.00 0.00 43
20190822000601 85 161 12.0 0.0 0.00 0.00 0.00 42
20190821235603 85 156 6.0 0.0 0.00 0.00 0.00 42
20190821234646 86 151 9.0 0.0 0.00 0.00 0.00 43
20190821233702 86 143 9.0 0.0 0.00 0.00 0.00 43
20190821232759 87 140 11.0 0.0 0.00 0.00 0.00 41
20190821231757 88 149 9.0 0.0 0.00 0.00 0.00 41
20190821230856 89 153 14.0 0.0 0.00 0.00 0.00 41
20190821225859 89 141 11.0 0.0 0.00 0.00 0.00 42
20190821224845 90 147 11.0 0.0 0.00 0.00 0.00 40
20190821223944 91 147 15.0 0.0 0.00 0.00 0.00 40
20190821223000 91 156 13.0 0.0 0.00 0.00 0.00 40
20190821222002 90 151 13.0 0.0 0.00 0.00 0.00 41
20190821221056 89 138 15.0 0.0 0.00 0.00 0.00 41
20190821220144 89 133 15.0 0.0 0.00 0.00 0.00 43
20190821215205 89 143 14.0 0.0 0.00 0.00 0.00 42
20190821214300 89 146 13.0 0.0 0.00 0.00 0.00 41
20190821213344 90 137 13.0 0.0 0.00 0.00 0.00 41
20190821212401 89 141 14.0 0.0 0.00 0.00 0.00 42
20190821211359 88 127 14.0 0.0 0.00 0.00 0.00 42
20190821210443 88 136 17.0 0.0 0.00 0.00 0.00 41
20190821205500 90 133 14.0 0.0 0.00 0.00 0.00 41
20190821204444 89 132 14.0 0.0 0.00 0.00 0.00 41
20190821203457 90 142 14.0 0.0 0.00 0.00 0.00 42
20190821202457 89 123 11.0 0.0 0.00 0.00 0.00 43
20190821201456 90 125 13.0 0.0 0.00 0.00 0.00 42
20190821200543 90 125 11.0 0.0 0.00 0.00 0.00 41
20190821195603 90 148 12.0 0.0 0.00 0.00 0.00 42
20190821194603 90 115 14.0 0.0 0.00 0.00 0.00 42
20190821193559 90 131 11.0 0.0 0.00 0.00 0.00 43
20190821192547 89 146 9.0 0.0 0.00 0.00 0.00 43
20190821191612 88 123 12.0 0.0 0.00 0.00 0.00 44
20190821190556 88 136 12.0 0.0 0.00 0.00 0.00 44
20190821185601 87 106 8.0 0.0 0.00 0.00 0.00 45
20190821184645 87 110 12.0 0.0 0.00 0.00 0.00 46
20190821183659 86 137 10.0 0.0 0.00 0.00 0.00 47
20190821182745 85 105 12.0 0.0 0.00 0.00 0.00 49
20190821181802 84 98 10.0 0.0 0.00 0.00 0.00 49
20190821180858 84 102 8.0 0.0 0.00 0.00 0.00 49
20190821175856 83 88 10.0 0.0 0.00 0.00 0.00 50
20190821174848 83 85 9.0 0.0 0.00 0.00 0.00 51
20190821173944 82 79 7.0 0.0 0.00 0.00 0.00 51
20190821173001 82 95 12.0 0.0 0.00 0.00 0.00 52
20190821172000 81 103 11.0 0.0 0.00 0.00 0.00 53
20190821170957 81 101 14.0 0.0 0.00 0.00 0.00 54
20190821165959 80 87 14.0 0.0 0.00 0.00 0.00 55
20190821164959 79 95 12.0 0.0 0.00 0.00 0.00 57